2022-085A

Last updated on Mon Jul 25 2022 00:02:04 GMT+0000 (Coordinated Universal Time)

1 53239U 22085A 22205.74463701 .00880733 00000+0 90677-2 0 9991 2 53239 41.4736 350.2267 0007336 272.1310 87.8692 15.61596516 82

Satellite not in orbit